Satellite-Ground Cal/Val Site Overpasses Predictions

Prediction of Satellite NPP Overpassing Cal/Val Site: Antarctic Dome C

Ground Cal/Val Site Location: Latitude: -75.10, Longitude: 123.35; Satellite-Ground Site NADIR distance within 100 km.

Table of predicted overpasses for the next 14.0 days since TLE Epoch: 4/27/2019
Interval Starting Time Ending Time Minimum Distance Time Minimum Distance (km)
1 04/27/2019 07:37:27 04/27/2019 07:37:55 04/27/2019 07:37:41 34.67
2 04/28/2019 07:18:43 04/28/2019 07:19:02 04/28/2019 07:18:52 75.34
3 04/30/2019 15:00:59 04/30/2019 15:01:22 04/30/2019 15:01:11 58.19
4 05/01/2019 14:42:09 05/01/2019 14:42:34 05/01/2019 14:42:21 50.90
5 05/02/2019 07:43:50 05/02/2019 07:44:11 05/02/2019 07:44:01 70.20
6 05/03/2019 07:24:59 05/03/2019 07:25:26 05/03/2019 07:25:12 37.81
7 05/05/2019 15:07:27 05/05/2019 15:07:35 05/05/2019 15:07:31 96.16
8 05/06/2019 14:48:26 05/06/2019 14:48:55 05/06/2019 14:48:41 14.98


NCC Satellite Cal/Val Overpasses Prediction Service
